Time,TemperatureF,DewpointF,PressureIn,WindDirection,WindDirectionDegrees,WindSpeedMPH,WindSpeedGustMPH,Humidity,HourlyPrecipIn,Conditions,Clouds,dailyrainin,SoftwareType,DateUTC
2013-09-19 00:01:00,59.0,57.0,30.16,ENE,59,0.0,0.0,92,0.00,,,0.00,,2013-09-19 04:01:00,
2013-09-19 00:25:00,60.0,58.0,30.16,ENE,59,0.0,0.0,93,0.00,,,0.00,,2013-09-19 04:25:00,
2013-09-19 00:54:00,60.0,58.0,30.15,ENE,59,0.0,0.0,92,0.00,,,0.00,,2013-09-19 04:54:00,
2013-09-19 01:23:00,60.0,58.0,30.15,ENE,59,0.0,0.0,93,0.00,,,0.00,,2013-09-19 05:23:00,
2013-09-19 01:52:00,60.0,58.0,30.15,ENE,59,0.0,0.0,93,0.00,,,0.00,,2013-09-19 05:52:00,
2013-09-19 02:22:00,60.0,59.0,30.15,ENE,59,0.0,0.0,95,0.00,,,0.00,,2013-09-19 06:22:00,
2013-09-19 02:52:00,61.0,60.0,30.15,ENE,59,0.0,0.0,95,0.00,,,0.00,,2013-09-19 06:52:00,
2013-09-19 03:02:00,61.0,60.0,30.15,ENE,59,0.0,0.0,95,0.00,,,0.00,,2013-09-19 07:02:00,
2013-09-19 03:22:00,61.0,60.0,30.14,ENE,59,0.0,0.0,95,0.00,,,0.00,,2013-09-19 07:22:00,
2013-09-19 03:52:00,61.0,60.0,30.15,ENE,59,0.0,0.0,97,0.00,,,0.00,,2013-09-19 07:52:00,
2013-09-19 04:22:00,61.0,61.0,30.14,ENE,59,0.0,0.0,99,0.00,,,0.00,,2013-09-19 08:22:00,
2013-09-19 04:52:00,61.0,61.0,30.14,ENE,59,0.0,0.0,100,0.00,,,0.00,,2013-09-19 08:52:00,
2013-09-19 05:21:00,61.0,61.0,30.14,ENE,59,0.0,0.0,100,0.00,,,0.00,,2013-09-19 09:21:00,
2013-09-19 05:53:00,61.0,61.0,30.14,ENE,59,0.0,0.0,100,0.00,,,0.00,,2013-09-19 09:53:00,
2013-09-19 06:24:00,61.0,61.0,30.14,ENE,59,0.0,0.0,100,0.00,,,0.00,,2013-09-19 10:24:00,
2013-09-19 06:52:00,61.0,61.0,30.14,ENE,59,0.0,0.0,100,0.00,,,0.00,,2013-09-19 10:52:00,
2013-09-19 07:22:00,61.0,61.0,30.14,ENE,59,0.0,0.0,100,0.00,,,0.00,,2013-09-19 11:22:00,
2013-09-19 07:53:00,61.0,61.0,30.15,ENE,59,0.0,0.0,100,0.00,,,0.00,,2013-09-19 11:53:00,
2013-09-19 08:21:00,61.0,61.0,30.15,ENE,59,0.0,0.0,100,0.00,,,0.00,,2013-09-19 12:21:00,
2013-09-19 08:52:00,62.0,62.0,30.16,ENE,59,0.0,0.0,100,0.00,,,0.00,,2013-09-19 12:52:00,
2013-09-19 09:22:00,62.0,62.0,30.17,ENE,59,0.0,0.0,100,0.00,,,0.00,,2013-09-19 13:22:00,
2013-09-19 09:52:00,62.0,62.0,30.17,ENE,59,0.0,0.0,100,0.00,,,0.00,,2013-09-19 13:52:00,
2013-09-19 10:22:00,63.0,63.0,30.17,ENE,59,0.0,0.0,100,0.00,,,0.00,,2013-09-19 14:22:00,
2013-09-19 10:52:00,64.0,64.0,30.17,ENE,59,0.0,0.0,100,0.00,,,0.00,,2013-09-19 14:52:00,
2013-09-19 11:22:00,66.0,66.0,30.16,ENE,59,0.0,0.0,100,0.00,,,0.00,,2013-09-19 15:22:00,
2013-09-19 11:33:00,66.0,66.0,30.16,ENE,59,0.0,0.0,100,0.00,,,0.00,,2013-09-19 15:33:00,
2013-09-19 11:53:00,67.0,64.0,30.16,ENE,75,0.0,0.0,90,0.00,,,0.00,,2013-09-19 15:53:00,
2013-09-19 12:04:00,67.0,64.0,30.16,ENE,75,0.0,0.0,90,0.00,,,0.00,,2013-09-19 16:04:00,
2013-09-19 12:24:00,67.0,61.0,30.16,NW,312,0.0,0.0,82,0.00,,,0.00,,2013-09-19 16:24:00,
2013-09-19 12:53:00,71.0,64.0,30.15,South,179,0.0,0.0,79,0.00,,,0.00,,2013-09-19 16:53:00,
2013-09-19 13:23:00,71.0,63.0,30.14,South,179,0.0,0.0,76,0.00,,,0.00,,2013-09-19 17:23:00,
2013-09-19 13:53:00,72.0,62.0,30.13,SE,131,0.0,0.0,70,0.00,,,0.00,,2013-09-19 17:53:00,
2013-09-19 14:22:00,75.0,62.0,30.11,SSE,152,0.0,0.0,65,0.00,,,0.00,,2013-09-19 18:22:00,
2013-09-19 14:52:00,77.0,62.0,30.10,ESE,118,0.0,0.0,59,0.00,,,0.00,,2013-09-19 18:52:00,
2013-09-19 15:02:00,77.0,62.0,30.10,ESE,118,0.0,0.0,59,0.00,,,0.00,,2013-09-19 19:02:00,
2013-09-19 15:22:00,77.0,60.0,30.10,SSE,167,0.0,0.0,55,0.00,,,0.00,,2013-09-19 19:22:00,
2013-09-19 15:52:00,79.0,60.0,30.09,NE,35,0.0,0.0,53,0.00,,,0.00,,2013-09-19 19:52:00,
2013-09-19 16:22:00,76.0,61.0,30.08,South,169,0.0,0.0,59,0.00,,,0.00,,2013-09-19 20:22:00,
2013-09-19 16:52:00,77.0,59.0,30.07,South,169,0.0,0.0,53,0.00,,,0.00,,2013-09-19 20:52:00,
2013-09-19 17:22:00,76.0,60.0,30.07,West,281,0.0,0.0,57,0.00,,,0.00,,2013-09-19 21:22:00,
2013-09-19 17:55:00,72.0,60.0,30.07,West,281,0.0,0.0,66,0.00,,,0.00,,2013-09-19 21:55:00,
2013-09-19 18:04:00,72.0,60.0,30.07,West,281,0.0,0.0,66,0.00,,,0.00,,2013-09-19 22:04:00,
2013-09-19 18:24:00,71.0,61.0,30.08,West,281,0.0,0.0,70,0.00,,,0.00,,2013-09-19 22:24:00,
2013-09-19 18:53:00,70.0,61.0,30.08,West,281,0.0,0.0,73,0.00,,,0.00,,2013-09-19 22:53:00,
2013-09-19 19:23:00,67.0,60.0,30.08,West,281,0.0,0.0,79,0.00,,,0.00,,2013-09-19 23:23:00,
2013-09-19 19:53:00,66.0,61.0,30.08,West,281,0.0,0.0,83,0.00,,,0.00,,2013-09-19 23:53:00,
2013-09-19 20:22:00,65.0,61.0,30.08,West,281,0.0,0.0,87,0.00,,,0.00,,2013-09-20 00:22:00,
2013-09-19 20:52:00,64.0,61.0,30.08,West,281,0.0,0.0,91,0.00,,,0.00,,2013-09-20 00:52:00,
2013-09-19 21:12:00,63.0,61.0,30.08,West,281,0.0,0.0,93,0.00,,,0.00,,2013-09-20 01:12:00,
2013-09-19 21:22:00,63.0,61.0,30.08,West,281,0.0,0.0,93,0.00,,,0.00,,2013-09-20 01:22:00,
2013-09-19 21:52:00,63.0,62.0,30.07,West,281,0.0,0.0,95,0.00,,,0.00,,2013-09-20 01:52:00,
2013-09-19 22:22:00,62.0,61.0,30.06,West,281,0.0,0.0,97,0.00,,,0.00,,2013-09-20 02:22:00,
2013-09-19 22:53:00,61.0,60.0,30.06,West,281,0.0,0.0,98,0.00,,,0.00,,2013-09-20 02:53:00,
2013-09-19 23:23:00,61.0,61.0,30.06,West,281,0.0,0.0,99,0.00,,,0.00,,2013-09-20 03:23:00,
2013-09-19 23:56:00,61.0,61.0,30.06,West,281,0.0,0.0,100,0.00,,,0.00,,2013-09-20 03:56:00,